Terug naar catalogus

OPS 0054

DMSP 5A F1

ActiefWeerPO
NORAD 4331·PAYLOAD·🇺🇸 United States

Gelanceerd Feb 11, 1970 vanaf Vandenberg Space Force Base

Loading…

Volgende Passages (komende 24 uur)

TLE

VersSource: Space-Track

Epoch: Sep 14, 2026, 06:22 UTC

1 04331U 70012A   26257.26597128  .00000132  00000-0  62195-4 0  9996
2 04331  99.0126  79.6544 0058152  69.3390 291.4016 14.34671577949950

Volg OPS 0054 in realtime met AllMySat

Download on the App Store